This is the latest recevied weather packets stored in our database for station/object W4SKW. If no packets are shown the sender has not sent any weather packets the latest 10 day(s).
| Time | Temp. | Humidity | Pressure | Rain* | Wind** | Luminosity | Snow |
|---|---|---|---|---|---|---|---|
| 1777992440 | 18.89° C | 72% | 1017.1 hPa | 0 mm | - | 159 W/m² | - |
| 1777992139 | 18.89° C | 75% | 1017.4 hPa | 0 mm | - | 114 W/m² | - |
| 1777991835 | 18.33° C | 72% | 1017.3 hPa | 0 mm | - | 111 W/m² | - |
| 1777991532 | 18.33° C | 73% | 1017.3 hPa | 0 mm | - | 156 W/m² | - |
| 1777991229 | 17.78° C | 71% | 1017.5 hPa | 0 mm | - | 81 W/m² | - |
| 1777990926 | 17.22° C | 73% | 1017.4 hPa | 0 mm | - | 166 W/m² | - |
| 1777990624 | 17.22° C | 72% | 1017.4 hPa | 0 mm | - | 174 W/m² | - |
| 1777989791 | 16.11° C | 77% | 1017.4 hPa | 0 mm | - | 63 W/m² | - |
| 1777989488 | 16.11° C | 78% | 1017.1 hPa | 0 mm | - | 56 W/m² | - |
| 1777989184 | 15.56° C | 79% | 1017.3 hPa | 0 mm | - | 52 W/m² | - |
| 1777988881 | 15.56° C | 79% | 1017.5 hPa | 0 mm | - | 50 W/m² | - |
| 1777988578 | 15° C | 78% | 1017.5 hPa | 0 mm | - | 61 W/m² | - |
| 1777988274 | 14.44° C | 81% | 1017.4 hPa | 0 mm | - | 52 W/m² | - |
| 1777987971 | 13.89° C | 80% | 1017.1 hPa | 0 mm | - | 54 W/m² | - |
| 1777987667 | 13.33° C | 85% | 1016.9 hPa | 0 mm | - | 53 W/m² | - |
| 1777987364 | 13.33° C | 85% | 1016.9 hPa | 0 mm | - | 53 W/m² | - |
| 1777987061 | 13.33° C | 86% | 1017.3 hPa | 0 mm | - | 54 W/m² | - |
| 1777986758 | 12.78° C | 85% | 1017.3 hPa | 0 mm | - | 51 W/m² | - |
| 1777986456 | 12.78° C | 87% | 1017.5 hPa | 0 mm | - | 60 W/m² | - |
| 1777986154 | 12.22° C | 88% | 1017.1 hPa | 0 mm | - | 41 W/m² | - |
| 1777985850 | 11.67° C | 89% | 1017.1 hPa | 0 mm | - | 36 W/m² | - |
| 1777985465 | 10.56° C | 95% | 1016.6 hPa | 0 mm | - | 58 W/m² | - |
| 1777985162 | 10.56° C | 95% | 1016.6 hPa | 0 mm | - | 58 W/m² | - |
| 1777984858 | 10.56° C | 95% | 1016.6 hPa | 0 mm | - | 58 W/m² | - |
| 1777984554 | 10.56° C | 96% | 1016.7 hPa | 0 mm | - | 43 W/m² | - |
* Rain latest hour (hover to see other rain measurements)
** Current wind speed in m/s (hover to see current wind gust speed)